Location: Pakowki
(49.4656°N, 110.9468°W)
Time: 08:16:56
(UTC+00:00)

Envisat - Visible Passes

Search period start: 06 July 2022 00:00
Search period end: 16 July 2022 00:00
Orbit: 764 x 765 km, 98.2° (Epoch: 05 July)

Date Brightness Start Highest point End Pass type
(mag) Time Alt. Az. Time Alt. Az. Time Alt. Az.
07 Jul 5.8 10:26:20 10° ENE 10:28:13 12° E 10:30:05 10° ESE visible
12 Jul 5.6 10:38:42 10° NE 10:41:47 16° E 10:44:51 10° SE visible
15 Jul 5.8 10:27:39 10° ENE 10:29:50 13° E 10:31:59 10° ESE visible
